When you browse on this site, cookies collect data to enhance your experience and personalize the content and advertising you see.
Visit our Privacy Policy to learn more. By continuing to use the site, you agree to this use of cookies and data.
  • Em Portugal
  • Lista de países
  • Para 7 dias
  • Temperatura da água
  • Mapas de satélite
  • Mapa do tempo
  • Widgets de tempo
  • user-avatar
    Iniciar Sessão

    Previsão horária em Rutul

    Hoje, 20 Junho, Quinta-feira

    Tempo Temperatura Precipitação Vento Pressão Humidade
    00:00 +15°C° 0 mm 1 m/s 644 mmHg 86%
    01:00 +15°C° 0 mm 1 m/s 644 mmHg 86%
    02:00 +15°C° 0 mm 1 m/s 643 mmHg 86%
    03:00 +14°C° 0 mm 1 m/s 643 mmHg 86%
    04:00 +16°C° 0 mm 1 m/s 644 mmHg 84%
    05:00 +18°C° 0 mm 1 m/s 644 mmHg 82%
    06:00 +19°C° 0 mm 1 m/s 645 mmHg 80%
    07:00 +21°C° 0.1 mm 1 m/s 645 mmHg 76%
    08:00 +21°C° 0.1 mm 2 m/s 645 mmHg 71%
    09:00 +23°C° 0 mm 2 m/s 646 mmHg 67%
    10:00 +23°C° 1.1 mm 2 m/s 646 mmHg 68%
    11:00 +23°C° 1.1 mm 2 m/s 646 mmHg 69%
    12:00 +24°C° 1.1 mm 2 m/s 645 mmHg 69%
    13:00 +24°C° 1.2 mm 2 m/s 645 mmHg 69%
    14:00 +23°C° 1.2 mm 2 m/s 645 mmHg 68%
    15:00 +24°C° 0 mm 2 m/s 645 mmHg 66%
    16:00 +23°C° 0.5 mm 2 m/s 644 mmHg 68%
    17:00 +21°C° 0.5 mm 2 m/s 644 mmHg 70%
    18:00 +21°C° 0.5 mm 2 m/s 644 mmHg 72%
    19:00 +20°C° 0.2 mm 1 m/s 644 mmHg 75%
    20:00 +19°C° 0.2 mm 1 m/s 644 mmHg 77%
    21:00 +15°C° 0.2 mm 0 m/s 644 mmHg 80%
    22:00 +16°C° 0 mm 1 m/s 643 mmHg 80%
    23:00 +16°C° 0 mm 1 m/s 643 mmHg 81%

    Amanhã, 21 Junho, Sexta-feira

    Tempo Temperatura Precipitação Vento Pressão Humidade
    00:00 +16°C° 0 mm 1 m/s 643 mmHg 81%
    01:00 +15°C° 0 mm 1 m/s 643 mmHg 81%
    02:00 +15°C° 0 mm 1 m/s 643 mmHg 80%
    03:00 +15°C° 0 mm 1 m/s 643 mmHg 80%
    04:00 +16°C° 0 mm 1 m/s 643 mmHg 80%
    05:00 +18°C° 0 mm 1 m/s 644 mmHg 79%
    06:00 +19°C° 0 mm 1 m/s 644 mmHg 78%
    07:00 +20°C° 0.2 mm 1 m/s 645 mmHg 73%
    08:00 +20°C° 0.2 mm 2 m/s 645 mmHg 68%
    09:00 +21°C° 0.2 mm 2 m/s 646 mmHg 63%
    10:00 +23°C° 0.7 mm 2 m/s 646 mmHg 64%
    11:00 +23°C° 0.7 mm 2 m/s 646 mmHg 64%
    12:00 +23°C° 0.7 mm 2 m/s 646 mmHg 65%
    13:00 +23°C° 1 mm 2 m/s 646 mmHg 66%
    14:00 +23°C° 1 mm 2 m/s 646 mmHg 68%
    15:00 +21°C° 1 mm 2 m/s 646 mmHg 69%
    16:00 +21°C° 0.4 mm 2 m/s 646 mmHg 72%
    17:00 +20°C° 0.4 mm 2 m/s 645 mmHg 75%
    18:00 +19°C° 0.4 mm 2 m/s 645 mmHg 78%
    19:00 +18°C° 0 mm 2 m/s 645 mmHg 81%
    20:00 +17°C° 0 mm 2 m/s 645 mmHg 84%
    21:00 +15°C° 0 mm 1 m/s 645 mmHg 86%
    22:00 +15°C° 0 mm 1 m/s 645 mmHg 86%
    23:00 +15°C° 0 mm 1 m/s 645 mmHg 86%

    Depois de amanhã, 22 Junho, Sábado

    Tempo Temperatura Precipitação Vento Pressão Humidade
    00:00 +14°C° 0 mm 1 m/s 645 mmHg 85%
    01:00 +14°C° 0 mm 1 m/s 645 mmHg 83%
    02:00 +14°C° 0 mm 1 m/s 645 mmHg 81%
    03:00 +14°C° 0 mm 1 m/s 644 mmHg 79%
    04:00 +15°C° 0 mm 1 m/s 645 mmHg 77%
    05:00 +18°C° 0 mm 1 m/s 646 mmHg 74%
    06:00 +19°C° 0 mm 1 m/s 646 mmHg 72%
    07:00 +21°C° 0 mm 1 m/s 647 mmHg 68%
    08:00 +22°C° 0 mm 1 m/s 647 mmHg 64%
    09:00 +24°C° 0 mm 1 m/s 648 mmHg 60%
    10:00 +24°C° 0.9 mm 2 m/s 648 mmHg 63%
    11:00 +24°C° 0.9 mm 2 m/s 648 mmHg 65%
    12:00 +24°C° 0.9 mm 2 m/s 648 mmHg 68%
    13:00 +24°C° 1.4 mm 2 m/s 648 mmHg 68%
    14:00 +24°C° 1.4 mm 2 m/s 648 mmHg 68%
    15:00 +25°C° 1.4 mm 2 m/s 647 mmHg 68%
    16:00 +24°C° 1 mm 2 m/s 647 mmHg 71%
    17:00 +23°C° 1 mm 2 m/s 647 mmHg 73%
    18:00 +23°C° 1 mm 1 m/s 647 mmHg 76%
    19:00 +21°C° 0.2 mm 1 m/s 646 mmHg 78%
    20:00 +20°C° 0.2 mm 1 m/s 646 mmHg 80%
    21:00 +18°C° 0.2 mm 1 m/s 646 mmHg 82%
    22:00 +18°C° 0 mm 1 m/s 646 mmHg 81%
    23:00 +18°C° 0 mm 1 m/s 646 mmHg 81%

    23 Junho, Domingo

    Tempo Temperatura Precipitação Vento Pressão Humidade
    00:00 +16°C° 0 mm 1 m/s 646 mmHg 80%
    01:00 +16°C° 0 mm 2 m/s 646 mmHg 79%
    02:00 +16°C° 0 mm 2 m/s 646 mmHg 78%
    03:00 +16°C° 0 mm 2 m/s 646 mmHg 77%
    04:00 +19°C° 0 mm 1 m/s 646 mmHg 74%
    05:00 +20°C° 0 mm 1 m/s 647 mmHg 72%
    06:00 +21°C° 0 mm 1 m/s 647 mmHg 69%
    07:00 +23°C° 0 mm 1 m/s 648 mmHg 63%
    08:00 +24°C° 0 mm 1 m/s 648 mmHg 57%
    09:00 +26°C° 0 mm 1 m/s 649 mmHg 51%
    10:00 +26°C° 0.1 mm 2 m/s 649 mmHg 52%
    11:00 +27°C° 0.1 mm 2 m/s 649 mmHg 53%
    12:00 +27°C° 0.1 mm 3 m/s 649 mmHg 54%
    13:00 +27°C° 0.3 mm 3 m/s 649 mmHg 53%
    14:00 +28°C° 0.3 mm 2 m/s 648 mmHg 53%
    15:00 +28°C° 0.3 mm 2 m/s 648 mmHg 52%
    16:00 +27°C° 0.1 mm 2 m/s 648 mmHg 56%
    17:00 +26°C° 0.1 mm 2 m/s 648 mmHg 60%
    18:00 +26°C° 0.1 mm 1 m/s 647 mmHg 63%
    19:00 +24°C° 0 mm 1 m/s 647 mmHg 66%
    20:00 +22°C° 0 mm 1 m/s 647 mmHg 69%
    21:00 +20°C° 0 mm 1 m/s 646 mmHg 72%
    22:00 +19°C° 0 mm 1 m/s 646 mmHg 72%
    23:00 +18°C° 0 mm 2 m/s 646 mmHg 72%

    24 Junho, Segunda-feira

    Tempo Temperatura Precipitação Vento Pressão Humidade
    00:00 +18°C° 0 mm 2 m/s 646 mmHg 72%
    01:00 +18°C° 0 mm 2 m/s 646 mmHg 71%
    02:00 +19°C° 0 mm 1 m/s 646 mmHg 69%
    03:00 +19°C° 0 mm 1 m/s 646 mmHg 68%
    04:00 +20°C° 0 mm 1 m/s 646 mmHg 67%
    05:00 +21°C° 0 mm 1 m/s 647 mmHg 65%
    06:00 +23°C° 0 mm 1 m/s 647 mmHg 64%
    07:00 +25°C° 0 mm 1 m/s 648 mmHg 59%
    08:00 +26°C° 0 mm 1 m/s 648 mmHg 54%
    09:00 +28°C° 0 mm 1 m/s 649 mmHg 49%
    10:00 +28°C° 0.2 mm 2 m/s 649 mmHg 49%
    11:00 +29°C° 0.2 mm 2 m/s 649 mmHg 50%
    12:00 +29°C° 0.2 mm 3 m/s 649 mmHg 51%
    13:00 +29°C° 0.6 mm 3 m/s 648 mmHg 52%
    14:00 +29°C° 0.6 mm 2 m/s 648 mmHg 52%
    15:00 +29°C° 0.6 mm 2 m/s 648 mmHg 53%
    16:00 +28°C° 0.4 mm 2 m/s 647 mmHg 57%
    17:00 +27°C° 0.4 mm 2 m/s 647 mmHg 61%
    18:00 +26°C° 0.4 mm 1 m/s 647 mmHg 64%
    19:00 +24°C° 0.1 mm 1 m/s 647 mmHg 67%
    20:00 +23°C° 0.1 mm 1 m/s 646 mmHg 70%
    21:00 +21°C° 0.1 mm 1 m/s 646 mmHg 73%
    22:00 +20°C° 0.1 mm 1 m/s 646 mmHg 71%
    23:00 +20°C° 0.1 mm 1 m/s 646 mmHg 70%

    25 Junho, Terça-feira

    Tempo Temperatura Precipitação Vento Pressão Humidade
    00:00 +20°C° 0.1 mm 1 m/s 646 mmHg 68%
    01:00 +19°C° 0.1 mm 1 m/s 646 mmHg 66%
    02:00 +19°C° 0.1 mm 1 m/s 646 mmHg 64%
    03:00 +19°C° 0.1 mm 1 m/s 646 mmHg 62%
    04:00 +20°C° 0 mm 1 m/s 647 mmHg 61%
    05:00 +22°C° 0 mm 1 m/s 647 mmHg 60%
    06:00 +23°C° 0 mm 1 m/s 648 mmHg 60%
    07:00 +24°C° 0 mm 1 m/s 648 mmHg 55%
    08:00 +25°C° 0 mm 2 m/s 649 mmHg 50%
    09:00 +27°C° 0 mm 2 m/s 649 mmHg 45%
    10:00 +27°C° 0.1 mm 2 m/s 649 mmHg 46%
    11:00 +28°C° 0.1 mm 3 m/s 649 mmHg 47%
    12:00 +28°C° 0.1 mm 3 m/s 649 mmHg 48%
    13:00 +28°C° 0.5 mm 3 m/s 649 mmHg 48%
    14:00 +28°C° 0.5 mm 3 m/s 649 mmHg 48%
    15:00 +28°C° 0.5 mm 3 m/s 648 mmHg 48%
    16:00 +27°C° 0.3 mm 2 m/s 648 mmHg 53%
    17:00 +26°C° 0.3 mm 2 m/s 648 mmHg 57%
    18:00 +26°C° 0.3 mm 1 m/s 648 mmHg 61%
    19:00 +24°C° 0.1 mm 1 m/s 647 mmHg 64%
    20:00 +22°C° 0.1 mm 1 m/s 647 mmHg 67%
    21:00 +20°C° 0.1 mm 1 m/s 647 mmHg 69%
    22:00 +19°C° 0 mm 1 m/s 646 mmHg 70%
    23:00 +19°C° 0 mm 1 m/s 646 mmHg 71%
    Mostrar mais